No particular awareness of the weather is required.    There are no Weather-warnings


Meteo18 Weather Cam more information Meteo18 Weather Cam


Thunder radar more information blitzortung!


Rain radar more information rain snow radar


Visit our other weather sites:

Template documentation
and downloads

And another site



Weather Underground History page Text

Daily Summary for October 12, 2017 Units:  English    Metric   Both
« Previous Day
Next Day »
Daily Weekly Monthly Yearly Custom
  High: Low: Average:
Temperature: TemperatureC °F 11.7 °F 14.7 °F
Dew Point: DewpointC °F 11.1 °F 13.3 °F
Humidity: Humidity % 80 % 91 %
Wind Speed: WindSpeedKMH mph 0.0 mph 3.9 mph
Wind Gust: WindSpeedGustKMH mph - -
Wind:- - SW
Pressure: PressurehPa in 1020.9 in -
Precipitation: 0.5 in    
Historical Graphs
 
 
Tabular Data for October 12, 2017
Time Temperature Dew Point Pressure Wind Wind Speed Wind Gust Humidity Rainfall Rate (Hourly)
TemperatureC °F DewpointC °F PressurehPa in Calm     Humidity % HourlyPrecipMM in
00:02 15.7 °F 12.3 °F 1020.9 in West 8.0 mph 19.3 mph 80 % 0.0 in
00:12 15.5 °F 12.3 °F 1021.2 in West 4.8 mph 19.3 mph 81 % 0.0 in
00:17 15.4 °F 12.3 °F 1021.2 in West 6.4 mph 17.7 mph 82 % 0.0 in
00:22 15.3 °F 12.2 °F 1021.2 in WNW 6.4 mph 17.7 mph 82 % 0.0 in
00:32 15.3 °F 12.4 °F 1021.6 in West 1.6 mph 12.9 mph 83 % 0.0 in
00:37 15.3 °F 12.4 °F 1021.6 in SSE 1.6 mph 11.3 mph 83 % 0.0 in
00:42 15.2 °F 12.5 °F 1021.6 in WSW 4.8 mph 11.3 mph 84 % 0.0 in
00:47 15.3 °F 12.6 °F 1021.9 in SW 3.2 mph 9.7 mph 84 % 0.0 in
00:52 15.3 °F 12.6 °F 1021.9 in WSW 6.4 mph 9.7 mph 84 % 0.0 in
00:57 15.3 °F 12.6 °F 1021.9 in SW 6.4 mph 11.3 mph 84 % 0.0 in
01:02 15.3 °F 12.6 °F 1021.9 in SW 11.3 mph 11.3 mph 84 % 0.0 in
01:12 15.3 °F 12.8 °F 1021.9 in SW 4.8 mph 11.3 mph 85 % 0.0 in
01:17 15.3 °F 12.8 °F 1022.2 in SW 1.6 mph 11.3 mph 85 % 0.0 in
01:27 15.3 °F 12.8 °F 1022.2 in WSW 6.4 mph 12.9 mph 85 % 0.0 in
01:32 15.3 °F 12.8 °F 1022.2 in West 6.4 mph 12.9 mph 85 % 0.0 in
01:47 15.1 °F 12.8 °F 1022.6 in West 6.4 mph 11.3 mph 86 % 0.0 in
01:52 15.1 °F 12.8 °F 1022.6 in Calm   9.7 mph 86 % 0.0 in
01:57 15.1 °F 12.8 °F 1022.9 in WSW 6.4 mph 8.0 mph 86 % 0.0 in
02:02 15.0 °F 12.9 °F 1022.9 in WNW 1.6 mph 8.0 mph 87 % 0.0 in
02:07 15.0 °F 12.9 °F 1022.9 in SW 3.2 mph 6.4 mph 87 % 0.0 in
02:12 15.0 °F 12.9 °F 1022.9 in SSW 1.6 mph 6.4 mph 87 % 0.0 in
02:17 14.9 °F 12.8 °F 1022.9 in WSW 3.2 mph 6.4 mph 87 % 0.0 in
02:22 14.9 °F 12.8 °F 1022.9 in SW 8.0 mph 8.0 mph 87 % 0.0 in
02:27 14.9 °F 12.9 °F 1023.2 in West 1.6 mph 9.7 mph 88 % 0.0 in
02:32 14.8 °F 12.8 °F 1023.2 in WSW 4.8 mph 9.7 mph 88 % 0.0 in
02:37 14.8 °F 12.8 °F 1023.2 in SW 4.8 mph 9.7 mph 88 % 0.0 in
02:42 14.8 °F 12.8 °F 1023.2 in WSW 8.0 mph 11.3 mph 88 % 0.0 in
02:47 14.8 °F 12.8 °F 1023.2 in WSW 4.8 mph 11.3 mph 88 % 0.0 in
02:57 14.7 °F 12.9 °F 1023.2 in West 9.7 mph 14.5 mph 89 % 0.0 in
03:02 14.6 °F 12.6 °F 1023.2 in WSW 6.4 mph 14.5 mph 88 % 0.0 in
03:12 14.5 °F 12.7 °F 1023.2 in WSW 8.0 mph 12.9 mph 89 % 0.0 in
03:17 14.4 °F 12.6 °F 1023.2 in WSW 8.0 mph 12.9 mph 89 % 0.0 in
03:22 14.4 °F 12.6 °F 1023.6 in SW 9.7 mph 14.5 mph 89 % 0.0 in
03:27 14.3 °F 12.5 °F 1023.6 in West 8.0 mph 14.5 mph 89 % 0.0 in
03:32 14.3 °F 12.5 °F 1023.6 in WSW 3.2 mph 12.9 mph 89 % 0.0 in
03:37 14.2 °F 12.6 °F 1023.6 in SSW 6.4 mph 14.5 mph 90 % 0.0 in
03:42 14.2 °F 12.6 °F 1023.6 in WSW 4.8 mph 14.5 mph 90 % 0.0 in
03:47 14.2 °F 12.6 °F 1023.2 in SW 3.2 mph 12.9 mph 90 % 0.0 in
03:52 14.1 °F 12.5 °F 1023.6 in SW 4.8 mph 19.3 mph 90 % 0.0 in
03:57 14.1 °F 12.5 °F 1023.6 in WSW 8.0 mph 19.3 mph 90 % 0.0 in
04:02 14.0 °F 12.4 °F 1023.6 in WSW 9.7 mph 14.5 mph 90 % 0.0 in
04:07 13.9 °F 12.5 °F 1023.6 in WSW 6.4 mph 14.5 mph 91 % 0.0 in
04:12 13.8 °F 12.4 °F 1023.2 in SW 6.4 mph 14.5 mph 91 % 0.0 in
04:17 13.8 °F 12.4 °F 1023.2 in SW 8.0 mph 12.9 mph 91 % 0.0 in
04:22 13.7 °F 12.3 °F 1023.2 in SSW 4.8 mph 12.9 mph 91 % 0.0 in
04:27 13.6 °F 12.3 °F 1023.2 in West 3.2 mph 14.5 mph 92 % 0.0 in
04:32 13.5 °F 12.2 °F 1023.2 in WSW 8.0 mph 14.5 mph 92 % 0.0 in
04:42 13.4 °F 12.3 °F 1023.2 in SW 6.4 mph 12.9 mph 93 % 0.0 in
04:47 13.4 °F 12.3 °F 1023.2 in SW 6.4 mph 12.9 mph 93 % 0.0 in
04:52 13.4 °F 12.3 °F 1023.2 in WSW 8.0 mph 12.9 mph 93 % 0.0 in
04:57 13.4 °F 12.3 °F 1023.2 in SW 4.8 mph 17.7 mph 93 % 0.0 in
05:02 13.4 °F 12.5 °F 1023.2 in SW 6.4 mph 17.7 mph 94 % 0.0 in
05:17 13.3 °F 12.4 °F 1023.2 in SSW 4.8 mph 12.9 mph 94 % 0.0 in
05:22 13.3 °F 12.4 °F 1023.6 in SW 3.2 mph 12.9 mph 94 % 0.0 in
05:27 13.4 °F 12.5 °F 1023.6 in WSW 6.4 mph 12.9 mph 94 % 0.0 in
05:32 13.4 °F 12.5 °F 1023.6 in WSW 3.2 mph 12.9 mph 94 % 0.0 in
05:37 13.5 °F 12.6 °F 1023.6 in SW 4.8 mph 9.7 mph 94 % 0.0 in
05:42 13.6 °F 12.7 °F 1023.6 in WSW 3.2 mph 9.7 mph 94 % 0.0 in
05:47 13.6 °F 12.7 °F 1023.6 in WSW 3.2 mph 11.3 mph 94 % 0.0 in
05:57 13.7 °F 12.8 °F 1023.9 in SSE 1.6 mph 11.3 mph 94 % 0.0 in
06:02 13.7 °F 12.8 °F 1023.9 in West 3.2 mph 11.3 mph 94 % 0.0 in
06:12 13.8 °F 12.9 °F 1024.3 in Calm   8.0 mph 94 % 0.0 in
06:17 13.9 °F 12.8 °F 1024.3 in Calm   8.0 mph 93 % 0.0 in
06:22 13.9 °F 12.8 °F 1024.3 in WSW 6.4 mph 9.7 mph 93 % 0.0 in
06:27 14.0 °F 12.9 °F 1024.3 in West 4.8 mph 9.7 mph 93 % 0.0 in
06:32 14.1 °F 13.0 °F 1024.3 in SSW 3.2 mph 11.3 mph 93 % 0.0 in
06:42 14.1 °F 12.8 °F 1024.6 in WSW 11.3 mph 14.5 mph 92 % 0.0 in
06:52 14.1 °F 13.0 °F 1024.6 in West 3.2 mph 14.5 mph 93 % 0.0 in
07:02 14.1 °F 13.0 °F 1024.9 in WNW 3.2 mph 11.3 mph 93 % 0.0 in
07:12 14.1 °F 13.0 °F 1024.9 in SW 1.6 mph 6.4 mph 93 % 0.0 in
07:17 14.1 °F 13.0 °F 1024.9 in West 4.8 mph 8.0 mph 93 % 0.0 in
07:22 14.1 °F 13.0 °F 1024.9 in SW 6.4 mph 8.0 mph 93 % 0.0 in
07:27 14.0 °F 12.9 °F 1024.9 in West 3.2 mph 9.7 mph 93 % 0.0 in
07:32 14.0 °F 12.9 °F 1024.9 in West 6.4 mph 9.7 mph 93 % 0.0 in
07:42 14.0 °F 13.0 °F 1025.3 in SW 8.0 mph 8.0 mph 94 % 0.0 in
07:47 14.0 °F 13.0 °F 1025.3 in West 3.2 mph 11.3 mph 94 % 0.0 in
07:52 14.0 °F 13.0 °F 1025.3 in WSW 4.8 mph 11.3 mph 94 % 0.0 in
07:57 13.9 °F 12.9 °F 1025.3 in WSW 4.8 mph 9.7 mph 94 % 0.0 in
08:02 13.9 °F 12.9 °F 1025.3 in SSW 4.8 mph 9.7 mph 94 % 0.0 in
08:07 13.9 °F 12.9 °F 1025.3 in WSW 4.8 mph 11.3 mph 94 % 0.0 in
08:12 13.9 °F 12.9 °F 1025.3 in WSW 11.3 mph 11.3 mph 94 % 0.0 in
08:17 13.9 °F 12.9 °F 1025.6 in SW 4.8 mph 12.9 mph 94 % 0.0 in
08:27 13.9 °F 12.9 °F 1025.6 in West 4.8 mph 11.3 mph 94 % 0.0 in
08:32 14.0 °F 13.0 °F 1025.6 in West 9.7 mph 11.3 mph 94 % 0.0 in
08:37 14.0 °F 13.0 °F 1025.6 in West 4.8 mph 14.5 mph 94 % 0.0 in
08:42 13.9 °F 12.9 °F 1026.0 in SW 6.4 mph 14.5 mph 94 % 0.0 in
08:52 13.9 °F 12.9 °F 1026.0 in SW 4.8 mph 9.7 mph 94 % 0.0 in
09:02 13.9 °F 13.1 °F 1026.0 in West 3.2 mph 12.9 mph 95 % 0.0 in
09:12 13.8 °F 13.0 °F 1026.3 in South 1.6 mph 9.7 mph 95 % 0.0 in
09:17 13.8 °F 13.0 °F 1026.3 in SW 4.8 mph 9.7 mph 95 % 0.0 in
09:22 13.8 °F 13.0 °F 1026.3 in SW 4.8 mph 9.7 mph 95 % 0.0 in
09:32 13.8 °F 13.0 °F 1026.3 in SSW 6.4 mph 11.3 mph 95 % 0.0 in
09:37 13.8 °F 13.0 °F 1026.6 in SW 3.2 mph 14.5 mph 95 % 0.0 in
09:42 13.8 °F 13.0 °F 1026.6 in SW 6.4 mph 14.5 mph 95 % 0.0 in
09:47 13.8 °F 13.0 °F 1026.6 in SSW 6.4 mph 14.5 mph 95 % 0.0 in
09:52 13.9 °F 13.1 °F 1026.6 in WSW 3.2 mph 14.5 mph 95 % 0.0 in
09:57 14.0 °F 13.2 °F 1026.6 in WSW 3.2 mph 9.7 mph 95 % 0.0 in
10:02 14.0 °F 13.2 °F 1027.0 in West 1.6 mph 9.7 mph 95 % 0.0 in
10:12 14.1 °F 13.3 °F 1027.0 in SW 3.2 mph 8.0 mph 95 % 0.0 in
10:22 14.2 °F 13.2 °F 1027.0 in WSW 1.6 mph 9.7 mph 94 % 0.0 in
10:32 14.3 °F 13.3 °F 1027.3 in WSW 4.8 mph 11.3 mph 94 % 0.0 in
10:42 14.4 °F 13.4 °F 1027.3 in SSW 6.4 mph 11.3 mph 94 % 0.0 in
10:47 14.4 °F 13.4 °F 1027.3 in West 4.8 mph 14.5 mph 94 % 0.0 in
10:52 14.4 °F 13.4 °F 1027.3 in SSW 8.0 mph 14.5 mph 94 % 0.0 in
10:57 14.5 °F 13.5 °F 1027.3 in SW 3.2 mph 12.9 mph 94 % 0.0 in
11:02 14.6 °F 13.6 °F 1027.3 in West 3.2 mph 12.9 mph 94 % 0.0 in
11:12 14.7 °F 13.7 °F 1027.7 in South 4.8 mph 12.9 mph 94 % 0.0 in
11:17 14.7 °F 13.7 °F 1027.3 in South 4.8 mph 9.7 mph 94 % 0.0 in
11:22 14.7 °F 13.7 °F 1027.7 in SSW 6.4 mph 9.7 mph 94 % 0.0 in
11:32 14.7 °F 13.7 °F 1027.7 in WSW 4.8 mph 12.9 mph 94 % 0.0 in
11:37 14.7 °F 13.7 °F 1027.7 in SW 6.4 mph 12.9 mph 94 % 0.0 in
11:42 14.7 °F 13.7 °F 1027.7 in West 4.8 mph 12.9 mph 94 % 0.0 in
11:52 14.8 °F 14.0 °F 1027.7 in SW 6.4 mph 11.3 mph 95 % 0.0 in
11:57 14.8 °F 14.0 °F 1027.7 in WSW 4.8 mph 12.9 mph 95 % 0.0 in
12:02 14.9 °F 14.1 °F 1027.7 in SW 9.7 mph 12.9 mph 95 % 0.0 in
12:12 14.8 °F 14.0 °F 1027.7 in SSW 6.4 mph 12.9 mph 95 % 0.0 in
12:17 14.8 °F 14.0 °F 1027.7 in SW 6.4 mph 14.5 mph 95 % 0.0 in
12:22 14.8 °F 14.0 °F 1027.7 in SSW 4.8 mph 14.5 mph 95 % 0.0 in
12:32 14.9 °F 14.1 °F 1027.7 in SW 6.4 mph 14.5 mph 95 % 0.0 in
12:42 15.0 °F 14.2 °F 1028.0 in SW 4.8 mph 14.5 mph 95 % 0.0 in
12:47 15.1 °F 14.3 °F 1028.0 in SW 3.2 mph 14.5 mph 95 % 0.0 in
12:52 15.1 °F 14.3 °F 1028.0 in WSW 1.6 mph 12.9 mph 95 % 0.0 in
12:57 15.2 °F 14.4 °F 1028.0 in SW 4.8 mph 12.9 mph 95 % 0.0 in
13:02 15.2 °F 14.4 °F 1028.0 in SW 1.6 mph 9.7 mph 95 % 0.0 in
13:12 15.3 °F 14.3 °F 1028.0 in SW 6.4 mph 9.7 mph 94 % 0.0 in
13:17 15.4 °F 14.4 °F 1028.0 in WSW 6.4 mph 12.9 mph 94 % 0.0 in
13:22 15.4 °F 14.4 °F 1028.0 in SW 8.0 mph 12.9 mph 94 % 0.0 in
13:27 15.5 °F 14.5 °F 1028.0 in SW 6.4 mph 12.9 mph 94 % 0.0 in
13:32 15.6 °F 14.6 °F 1028.0 in SSW 6.4 mph 12.9 mph 94 % 0.0 in
13:37 15.7 °F 14.6 °F 1028.0 in WSW 4.8 mph 11.3 mph 93 % 0.0 in
13:42 15.8 °F 14.5 °F 1028.0 in SW 4.8 mph 12.9 mph 92 % 0.0 in
13:47 15.8 °F 14.5 °F 1028.0 in SW 11.3 mph 12.9 mph 92 % 0.0 in
13:52 15.9 °F 14.6 °F 1028.0 in SW 6.4 mph 12.9 mph 92 % 0.0 in
14:02 16.0 °F 14.7 °F 1027.7 in South 8.0 mph 12.9 mph 92 % 0.0 in
14:12 16.0 °F 14.7 °F 1027.7 in SSW 6.4 mph 11.3 mph 92 % 0.0 in
14:17 15.9 °F 14.8 °F 1027.7 in SSW 6.4 mph 11.3 mph 93 % 0.0 in
14:22 15.8 °F 14.7 °F 1027.7 in SSW 6.4 mph 11.3 mph 93 % 0.3 in
14:32 15.9 °F 15.1 °F 1027.7 in SW 3.2 mph 9.7 mph 95 % 0.3 in
14:37 16.0 °F 15.0 °F 1027.7 in SW 1.6 mph 9.7 mph 94 % 0.3 in
14:42 16.0 °F 15.0 °F 1027.7 in SW 1.6 mph 8.0 mph 94 % 0.3 in
14:47 16.2 °F 15.2 °F 1027.7 in SW 1.6 mph 6.4 mph 94 % 0.3 in
14:52 16.3 °F 15.3 °F 1027.7 in SW 1.6 mph 8.0 mph 94 % 0.3 in
14:57 16.3 °F 15.2 °F 1027.7 in WSW 3.2 mph 8.0 mph 93 % 0.3 in
15:12 16.1 °F 15.1 °F 1027.7 in WSW 3.2 mph 12.9 mph 94 % 0.5 in
15:22 16.1 °F 15.1 °F 1027.7 in WSW 8.0 mph 11.3 mph 94 % 0.3 in
15:32 16.2 °F 15.2 °F 1027.7 in SW 11.3 mph 11.3 mph 94 % 0.3 in
15:37 16.1 °F 15.1 °F 1027.7 in SSW 3.2 mph 11.3 mph 94 % 0.3 in
15:42 16.1 °F 15.1 °F 1027.7 in SW 6.4 mph 11.3 mph 94 % 0.3 in
15:47 16.2 °F 15.1 °F 1027.7 in WSW 8.0 mph 11.3 mph 93 % 0.3 in
15:52 16.1 °F 15.0 °F 1027.7 in SW 3.2 mph 11.3 mph 93 % 0.3 in
15:57 16.1 °F 15.0 °F 1027.7 in West 4.8 mph 11.3 mph 93 % 0.3 in
16:02 16.2 °F 15.1 °F 1027.7 in SW 8.0 mph 11.3 mph 93 % 0.0 in
16:12 16.2 °F 14.6 °F 1027.3 in WSW 3.2 mph 9.7 mph 90 % 0.0 in
16:17 16.3 °F 14.7 °F 1027.3 in SW 4.8 mph 11.3 mph 90 % 0.0 in
16:22 16.3 °F 14.7 °F 1027.3 in SW 4.8 mph 11.3 mph 90 % 0.0 in
16:32 16.6 °F 15.0 °F 1027.3 in West 3.2 mph 9.7 mph 90 % 0.0 in
16:37 16.7 °F 15.1 °F 1027.3 in SSW 4.8 mph 9.7 mph 90 % 0.0 in
16:42 16.8 °F 15.1 °F 1027.3 in SSW 3.2 mph 9.7 mph 90 % 0.0 in
16:47 17.0 °F 15.2 °F 1027.3 in WSW 3.2 mph 9.7 mph 89 % 0.0 in
16:52 17.2 °F 15.4 °F 1027.3 in SW 4.8 mph 9.7 mph 89 % 0.0 in
16:57 17.4 °F 15.4 °F 1027.3 in SW 4.8 mph 9.7 mph 88 % 0.0 in
17:02 17.4 °F 15.4 °F 1027.3 in WNW 1.6 mph 8.0 mph 88 % 0.0 in
17:07 17.4 °F 15.4 °F 1027.3 in WSW 4.8 mph 8.0 mph 88 % 0.0 in
17:17 17.7 °F 15.5 °F 1027.3 in WSW 3.2 mph 8.0 mph 87 % 0.0 in
17:22 17.8 °F 15.6 °F 1027.3 in WSW 9.7 mph 9.7 mph 87 % 0.0 in
17:32 18.2 °F 15.8 °F 1027.3 in SW 6.4 mph 9.7 mph 86 % 0.0 in
17:37 18.2 °F 15.6 °F 1027.3 in West 4.8 mph 9.7 mph 85 % 0.0 in
17:42 18.1 °F 15.5 °F 1027.3 in West 3.2 mph 6.4 mph 85 % 0.0 in
17:47 18.2 °F 15.5 °F 1027.3 in SW 1.6 mph 9.7 mph 84 % 0.0 in
17:57 18.3 °F 15.2 °F 1027.3 in SSW 4.8 mph 8.0 mph 82 % 0.0 in
18:02 18.2 °F 15.1 °F 1027.3 in SW 3.2 mph 8.0 mph 82 % 0.0 in
18:12 18.2 °F 15.1 °F 1027.3 in WSW 3.2 mph 8.0 mph 82 % 0.0 in
18:17 18.2 °F 15.1 °F 1027.3 in SSW 3.2 mph 8.0 mph 82 % 0.0 in
18:22 18.2 °F 15.1 °F 1027.3 in SW 3.2 mph 8.0 mph 82 % 0.0 in
18:32 17.9 °F 15.0 °F 1027.3 in SW 1.6 mph 6.4 mph 83 % 0.0 in
18:42 17.4 °F 14.9 °F 1027.7 in SW 3.2 mph 6.4 mph 85 % 0.0 in
18:47 17.2 °F 14.8 °F 1027.3 in SSW 1.6 mph 4.8 mph 86 % 0.0 in
18:52 16.9 °F 14.5 °F 1027.3 in SW 1.6 mph 4.8 mph 86 % 0.0 in
18:57 16.6 °F 14.4 °F 1027.3 in SSW 1.6 mph 4.8 mph 87 % 0.0 in
19:02 16.3 °F 14.3 °F 1027.3 in Calm   3.2 mph 88 % 0.0 in
19:12 16.2 °F 14.4 °F 1027.7 in Calm   3.2 mph 89 % 0.0 in
19:17 16.1 °F 14.3 °F 1027.7 in Calm   3.2 mph 89 % 0.0 in
19:22 16.0 °F 14.2 °F 1027.7 in Calm   3.2 mph 89 % 0.0 in
19:32 15.7 °F 13.9 °F 1027.7 in Calm     89 % 0.0 in
19:42 15.3 °F 13.7 °F 1027.7 in Calm     90 % 0.0 in
19:52 15.1 °F 13.8 °F 1027.7 in Calm     92 % 0.0 in
20:02 14.7 °F 13.4 °F 1027.7 in Calm     92 % 0.0 in
20:07 14.6 °F 13.5 °F 1027.7 in Calm     93 % 0.0 in
20:12 14.4 °F 13.3 °F 1027.7 in Calm     93 % 0.0 in
20:17 14.2 °F 13.2 °F 1027.7 in Calm     94 % 0.0 in
20:22 14.1 °F 13.1 °F 1027.7 in Calm     94 % 0.0 in
20:27 14.1 °F 13.3 °F 1027.7 in Calm     95 % 0.0 in
20:32 14.0 °F 13.0 °F 1027.7 in Calm     94 % 0.0 in
20:37 14.1 °F 13.3 °F 1027.7 in Calm     95 % 0.0 in
20:42 14.1 °F 13.3 °F 1027.7 in NNE 1.6 mph 3.2 mph 95 % 0.0 in
20:47 14.1 °F 13.3 °F 1027.7 in NNE 1.6 mph 3.2 mph 95 % 0.0 in
20:52 13.9 °F 13.1 °F 1027.7 in Calm   3.2 mph 95 % 0.0 in
20:57 13.8 °F 13.0 °F 1027.7 in Calm   1.6 mph 95 % 0.0 in
21:02 13.7 °F 12.9 °F 1027.7 in NNE 1.6 mph 1.6 mph 95 % 0.0 in
21:12 13.6 °F 13.0 °F 1027.7 in NNW 1.6 mph 1.6 mph 96 % 0.0 in
21:17 13.3 °F 12.5 °F 1027.7 in Calm   1.6 mph 95 % 0.0 in
21:27 13.3 °F 12.7 °F 1027.7 in Calm   1.6 mph 96 % 0.0 in
21:32 13.3 °F 12.7 °F 1027.7 in Calm   1.6 mph 96 % 0.0 in
21:42 13.3 °F 12.7 °F 1027.7 in Calm   1.6 mph 96 % 0.0 in
21:47 13.2 °F 12.6 °F 1027.7 in Calm   1.6 mph 96 % 0.0 in
21:52 13.4 °F 12.9 °F 1027.7 in Calm   1.6 mph 97 % 0.0 in
21:57 13.4 °F 12.8 °F 1027.7 in Calm     96 % 0.0 in
22:02 13.1 °F 12.5 °F 1027.7 in Calm     96 % 0.0 in
22:12 12.4 °F 11.8 °F 1027.7 in Calm     96 % 0.0 in
22:17 12.2 °F 11.6 °F 1027.7 in Calm     96 % 0.0 in
22:22 12.2 °F 11.7 °F 1027.7 in Calm     97 % 0.0 in
22:27 12.3 °F 11.8 °F 1027.7 in Calm     97 % 0.0 in
22:32 12.2 °F 11.6 °F 1027.7 in Calm     96 % 0.0 in
22:37 12.1 °F 11.5 °F 1027.7 in Calm     96 % 0.0 in
22:47 12.4 °F 11.9 °F 1027.7 in Calm     97 % 0.0 in
22:52 12.5 °F 12.0 °F 1027.7 in Calm     97 % 0.0 in
23:02 12.1 °F 11.5 °F 1027.7 in Calm     96 % 0.0 in
23:07 12.1 °F 11.6 °F 1027.7 in Calm     97 % 0.0 in
23:12 12.3 °F 11.8 °F 1027.7 in Calm     97 % 0.0 in
23:17 12.1 °F 11.5 °F 1027.7 in Calm     96 % 0.0 in
23:22 11.9 °F 11.3 °F 1027.7 in Calm     96 % 0.0 in
23:32 11.9 °F 11.4 °F 1027.7 in Calm     97 % 0.0 in
23:37 12.0 °F 11.5 °F 1027.7 in Calm     97 % 0.0 in
23:42 11.8 °F 11.2 °F 1027.7 in Calm     96 % 0.0 in
23:47 11.9 °F 11.4 °F 1027.7 in Calm     97 % 0.0 in
23:52 11.8 °F 11.3 °F 1027.7 in Calm     97 % 0.0 in
23:57 11.7 °F 11.1 °F 1027.7 in Calm     96 % 0.0 in
Meteo18
Compliments of Weather Underground - 4 mb

Script developed by  Jim McMurry - jmcmurry@mwt.net Adapted for the template by  Wim van der Kuil - Leuven-Template.eu

You find our weather info also at:

European Weather Network

Weather Underground

Equipment we use:

Weather-station
Davis Vue

Weather-program
Meteobridge

Weather-server
Raspberry PI 2 B+

Provider
1 and 1

Davis Vue

Meteobridge

Raspberry PI 2 B+

1 and 1